[[{"header":{"parameterUnit":"m.s-1","parameterCategory":1,"la1":30.2991,"la2":30.254,"lo1":-89.0895,"lo2":-89.0444,"dy":0.0017,"dx":0.0017,"nx":28,"ny":28,"refTime":"2023-09-05T21:00:00:Z","depth":0,"parameterNumber":2,"parameterNumberName":"U-component_of_WINDS"},"data":[0,0,0,0,0,0,0,0,0,0,0,0,0,0,0,0,0,0,0,0,0,0,0,0,0,0,0,0,0,0,0,0,0,0,0,0,0,0,0,0,0,0,0,0,0,0,0,0,0,0,0,0,0,0,0,0,0,0,-3.9538,-3.9538,0,-3.9551,-3.9551,-3.9552,-3.9521,-3.952,-3.9519,-3.9518,-3.9531,-3.9532,-3.9533,0,0,0,0,0,0,0,0,0,0,0,0,0,-3.9486,-3.9487,-3.9538,-3.9538,-3.9538,-3.9551,-3.9551,-3.9552,-3.9521,-3.952,-3.9519,-3.9518,-3.9531,-3.9532,-3.9534,0,0,0,0,0,0,0,0,0,0,0,0,0,-3.9505,-3.9487,-3.9538,-3.9525,-3.9524,-3.9551,-3.9551,-3.9552,-3.9522,-3.952,-3.9519,-3.9517,-3.953,-3.9532,-3.9534,-3.9574,0,0,-3.9539,-3.954,0,0,0,0,0,0,0,0,-3.9503,-3.9506,-3.9526,-3.9526,-3.9525,-3.9533,-3.9538,-3.9559,-3.9522,-3.9522,-3.9518,-3.9517,-3.9533,-3.9534,-3.954,-3.9575,-3.9575,-3.954,-3.9541,-3.9542,-3.9542,0,0,0,0,0,0,0,-3.9502,-3.9506,-3.9543,-3.9527,-3.9526,-3.9518,-3.9519,-3.9542,-3.9536,-3.9522,-3.952,-3.9522,-3.9532,-3.9538,-3.954,-3.9576,-3.954,-3.9541,-3.9542,-3.9543,-3.9644,-3.9646,0,0,0,0,0,0,-3.9503,-3.9505,-3.9543,-3.9543,-3.951,-3.952,-3.9521,-3.9532,-3.9535,-3.9534,-3.9523,-3.9521,-3.9536,-3.9538,-3.954,-3.9588,-3.9542,-3.9543,-3.9544,-3.9643,-3.9645,-3.9646,0,0,0,0,0,0,-3.9502,-3.9506,-3.9542,-3.9524,-3.9528,-3.9523,-3.9535,-3.9533,-3.9539,-3.9536,-3.9535,-3.9531,-3.9535,-3.9538,-3.9566,-3.9588,-3.9544,-3.9546,-3.9641,-3.9643,-3.9646,-3.9683,0,0,0,0,0,0,-3.95,-3.9506,-3.9521,-3.9524,-3.9529,-3.9568,-3.9536,-3.9534,-3.9542,-3.9539,-3.9543,-3.9542,-3.9534,-3.9564,-3.9568,-3.9589,-3.9547,-3.9639,-3.9642,-3.9645,-3.9679,-3.9686,-3.9692,0,0,0,0,0,-3.9499,-3.9531,-3.9522,-3.9527,-3.9548,-3.9569,-3.9572,-3.9562,-3.9544,-3.956,-3.9558,-3.9542,-3.9585,-3.9567,-3.9571,-3.9594,-3.9638,-3.9641,-3.9645,-3.9677,-3.9685,-3.9691,0,0,0,0,0,0,-3.953,-3.9531,-3.9521,-3.9556,-3.9563,-3.9564,-3.9583,-3.9571,-3.9582,-3.9578,-3.9566,-3.9567,-3.9598,-3.9599,-3.9578,-3.9633,-3.9608,-3.9613,-3.9631,-3.9639,-3.9645,-3.9643,-3.9549,0,0,0,0,0,-3.9541,-3.9559,-3.9559,-3.9589,-3.9593,-3.9588,-3.9596,-3.9589,-3.9595,-3.9597,-3.9598,-3.9604,-3.9619,-3.9629,-3.9643,-3.968,-3.968,-3.9698,-3.9704,-3.9709,-3.9713,-3.9732,-3.974,-3.9658,-3.9658,-3.9658,0,0,-3.9564,-3.9567,-3.9578,-3.9595,-3.96,-3.9618,-3.959,-3.961,-3.9623,-3.96,-3.9627,-3.9628,-3.9634,-3.9667,-3.9682,-3.9669,-3.9736,-3.9714,-3.9718,-3.9718,-3.9737,-3.9744,-3.9751,-3.9661,-3.966,-3.966,0,0,-3.9614,-3.9619,-3.9644,-3.965,-3.9657,-3.9653,-3.966,-3.9663,-3.9663,-3.969,-3.9673,-3.9688,-3.9715,-3.972,-3.9726,-3.978,-3.9766,-3.9785,-3.9816,-3.9836,-3.9842,-3.9848,-3.9866,-3.9873,-3.9789,-3.979,-3.979,0,-3.9641,-3.9668,-3.9659,-3.968,-3.9688,-3.967,-3.9695,-3.9701,-3.9712,-3.9718,-3.9704,-3.9737,-3.974,-3.9774,-3.9787,-3.9793,-3.98,-3.9784,-3.9842,-3.9848,-3.9853,-3.987,-3.9877,-3.9792,-3.9791,-3.9791,-3.9791,0,-3.9701,-3.972,-3.974,-3.9752,-3.9762,-3.9786,-3.978,-3.9792,-3.9784,-3.9781,-3.9809,-3.9813,-3.9827,-3.9834,-3.9826,-3.9867,-3.9859,-3.9844,-3.9818,-3.9863,-3.9879,-3.9886,-3.9795,-3.9794,-3.9793,-3.9793,0,0,-3.9769,-3.9777,-3.9784,-3.979,-3.9797,-3.9812,-3.9835,-3.9849,-3.9859,-3.9868,-3.9887,-3.991,-3.9896,-3.9903,-3.9896,-3.9913,-3.9955,-3.9896,-3.9896,-3.9906,-4.0,-4.0011,-4.0019,-3.9947,-3.9948,-3.9949,-3.9999,0,-3.9818,-3.9858,-3.9851,-3.989,-3.9907,-3.989,-3.991,-3.9917,-3.9916,-3.9931,-3.993,-3.9946,-3.9927,-3.9931,-3.9948,-3.9947,-3.9974,-3.9943,-3.9963,-3.9964,-3.996,-4.0027,-4.0038,-4.0085,-4.0006,-4.0007,-4.0008,0,-3.988,-3.9892,-3.9933,-3.9938,-3.9945,-3.9963,-3.9976,-3.9991,-3.9998,-3.9996,-4.0005,-3.9995,-4.0018,-3.9994,-4.0025,-4.0004,-4.0012,-4.0013,-4.0015,-4.0015,-3.9987,-4.0028,-4.01,-4.0106,-4.0018,-4.0017,-4.0016,0,-3.9925,-3.9952,-3.9979,-3.9984,-3.9992,-4.0005,-4.0008,-4.0014,-4.0024,-4.0035,-4.0041,-4.0055,-4.0062,-4.0073,-4.0067,-4.005,-4.01,-4.0075,-4.0098,-4.0098,-4.0107,-4.0107,-4.018,-4.0115,-4.0115,-4.0115,-4.0115,0,-3.998,-4.0005,-3.9999,-4.0016,-4.0044,-4.0036,-4.0064,-4.0065,-4.0071,-4.0088,-4.0075,-4.0091,-4.0083,-4.0098,-4.0093,-4.012,-4.0123,-4.0122,-4.012,-4.0122,-4.0122,-4.0126,-4.0122,-4.0117,-4.0117,-4.0116,-4.0116,0,-4.0034,-4.0031,-4.006,-4.0065,-4.0067,-4.0087,-4.0091,-4.0107,-4.0106,-4.0127,-4.0131,-4.013,-4.0147,-4.0143,-4.0162,-4.0159,-4.0191,-4.0186,-4.0189,-4.0187,-4.021,-4.0208,-4.0288,-4.0297,-4.0227,-4.0228,-4.0229,0,-4.0068,-4.0087,-4.0094,-4.0105,-4.011,-4.0127,-4.0136,-4.013,-4.014,-4.0151,-4.0166,-4.0182,-4.0195,-4.0224,-4.0224,-4.0238,-4.0232,-4.026,-4.0234,-4.0236,-4.0231,-4.023,-4.0231,-4.0264,-4.0265,-4.0265,-4.0266,0,-4.0129,-4.0127,-4.0141,-4.0156,-4.0168,-4.0179,-4.0189,-4.0198,-4.0193,-4.0205,-4.0223,-4.0233,-4.0253,-4.0269,-4.0283,-4.0287,-4.0275,-4.0274,-4.028,-4.0282,-4.0282,-4.0281,-4.0201,-4.0272,-4.0271,-4.0271,-4.0271,-4.027,-4.0173,-4.0189,-4.0197,-4.0214,-4.0221,-4.0231,-4.0246,-4.0247,-4.0262,-4.0278,-4.0273,-4.0294,-4.0301,-4.0319,-4.0324,-4.034,-4.0329,-4.0338,-4.034,-4.0342,-4.0345,-4.0281,-4.0342,-4.0342,-4.0342,-4.0342,-4.0342,0,-4.0232,-4.0237,-4.0253,-4.0267,-4.028,-4.027,-4.0281,-4.0292,-4.031,-4.0319,-4.0332,-4.0353,-4.0369,-4.0371,-4.0387,-4.0399,-4.0394,-4.0403,-4.0401,-4.0402,-4.0353,-4.0346,-4.0406,-4.0406,-4.0406,-4.0406,-4.0406,-4.0406,-4.0264,-4.0291,-4.029,-4.0321,-4.0325,-4.0345,-4.0352,-4.0361,-4.0368,-4.0392,-4.0405,-4.0407,-4.0413,-4.0429,-4.0443,-4.0443,-4.0449,-4.046,-4.0458,-4.0412,-4.0405,-4.0399,-4.0392,-4.0461,-4.0461,-4.0505,-4.0505,-4.0505]},{"header":{"parameterUnit":"m.s-1","parameterCategory":1,"la1":30.2991,"la2":30.254,"lo1":-89.0895,"lo2":-89.0444,"dy":0.0017,"dx":0.0017,"nx":28,"ny":28,"refTime":"2023-09-05T21:00:00:Z","depth":0,"parameterNumber":3,"parameterNumberName":"V-component_of_WINDS"},"data":[0,0,0,0,0,0,0,0,0,0,0,0,0,0,0,0,0,0,0,0,0,0,0,0,0,0,0,0,0,0,0,0,0,0,0,0,0,0,0,0,0,0,0,0,0,0,0,0,0,0,0,0,0,0,0,0,0,0,2.8919,2.8919,0,2.8915,2.8915,2.8915,2.8916,2.8916,2.8916,2.8916,2.8909,2.8909,2.8909,0,0,0,0,0,0,0,0,0,0,0,0,0,2.8924,2.8924,2.8919,2.8919,2.8919,2.8915,2.8915,2.8915,2.8916,2.8916,2.8916,2.8916,2.891,2.8909,2.8909,0,0,0,0,0,0,0,0,0,0,0,0,0,2.8921,2.8924,2.8919,2.8919,2.8919,2.8915,2.8915,2.8915,2.8916,2.8916,2.8916,2.8916,2.891,2.8909,2.8909,2.8905,0,0,2.8908,2.8908,0,0,0,0,0,0,0,0,2.8921,2.8921,2.8919,2.8919,2.8919,2.8916,2.8915,2.8912,2.8916,2.8917,2.8916,2.8916,2.8911,2.8911,2.891,2.8904,2.8904,2.8908,2.8908,2.8907,2.8907,0,0,0,0,0,0,0,2.8921,2.8921,2.8917,2.8919,2.8919,2.8918,2.8918,2.8914,2.8913,2.8917,2.8917,2.8916,2.8911,2.891,2.891,2.8904,2.8908,2.8907,2.8907,2.8907,2.8896,2.8896,0,0,0,0,0,0,2.8922,2.8921,2.8917,2.8917,2.892,2.8918,2.8918,2.8917,2.8914,2.8913,2.8916,2.8916,2.8911,2.891,2.891,2.8905,2.8907,2.8907,2.8907,2.8896,2.8896,2.8896,0,0,0,0,0,0,2.8922,2.8922,2.8918,2.8919,2.8919,2.8918,2.8917,2.8917,2.8916,2.8913,2.8913,2.8916,2.8911,2.891,2.8906,2.8905,2.8907,2.8907,2.8896,2.8896,2.8896,2.8896,0,0,0,0,0,0,2.8922,2.8922,2.892,2.8919,2.8919,2.8915,2.8917,2.8917,2.8915,2.8915,2.8912,2.8912,2.8911,2.8907,2.8906,2.8904,2.8906,2.8896,2.8896,2.8896,2.8896,2.8896,2.8896,0,0,0,0,0,2.8922,2.892,2.892,2.892,2.8917,2.8915,2.8914,2.8914,2.8915,2.8914,2.8913,2.8912,2.8905,2.8907,2.8906,2.8904,2.8896,2.8896,2.8896,2.8896,2.8896,2.8896,0,0,0,0,0,0,2.8919,2.8919,2.892,2.8917,2.8916,2.8915,2.8913,2.8914,2.8912,2.8912,2.891,2.891,2.8906,2.8905,2.8906,2.89,2.8901,2.8901,2.8901,2.8901,2.8901,2.8901,2.8906,0,0,0,0,0,2.8918,2.8917,2.8917,2.8914,2.8914,2.8914,2.8913,2.8913,2.8911,2.8911,2.8909,2.8907,2.8905,2.8903,2.89,2.8896,2.8896,2.8894,2.8894,2.8894,2.8894,2.8892,2.8892,2.8895,2.8895,2.8895,0,0,2.8916,2.8916,2.8915,2.8914,2.8913,2.8911,2.8913,2.8911,2.891,2.891,2.8907,2.8906,2.8903,2.89,2.8898,2.8898,2.8893,2.8894,2.8894,2.8893,2.8892,2.8891,2.8891,2.8895,2.8895,2.8895,0,0,2.8911,2.8911,2.8909,2.8909,2.8908,2.8908,2.8908,2.8907,2.8907,2.8904,2.8905,2.8903,2.8898,2.8897,2.8896,2.8892,2.8892,2.8892,2.889,2.8889,2.8888,2.8888,2.8887,2.8887,2.8891,2.8891,2.8891,0,2.8907,2.8906,2.8907,2.8906,2.8906,2.8907,2.8905,2.8905,2.8903,2.8902,2.8903,2.8899,2.8897,2.8894,2.8893,2.8892,2.8891,2.8891,2.8888,2.8888,2.8888,2.8887,2.8887,2.8891,2.8891,2.8891,2.8891,0,2.8902,2.8901,2.89,2.89,2.8899,2.8897,2.8898,2.8898,2.8898,2.8898,2.8896,2.8894,2.8892,2.8891,2.8891,2.8888,2.8888,2.8889,2.8889,2.8888,2.8887,2.8886,2.8891,2.8891,2.8891,2.8891,0,0,2.8894,2.8896,2.8895,2.8896,2.8896,2.8895,2.8894,2.8893,2.8893,2.8892,2.889,2.8888,2.8889,2.8887,2.8887,2.8886,2.8884,2.8886,2.8886,2.8886,2.8881,2.8881,2.888,2.8884,2.8884,2.8884,2.8881,0,2.8889,2.8887,2.8889,2.8887,2.8887,2.8889,2.8888,2.8888,2.8888,2.8887,2.8887,2.8885,2.8887,2.8886,2.8885,2.8884,2.8883,2.8885,2.8882,2.8882,2.8883,2.888,2.8879,2.8876,2.8881,2.8881,2.8881,0,2.8883,2.8883,2.8881,2.8884,2.8883,2.8882,2.8882,2.8882,2.8882,2.8882,2.8882,2.8882,2.8881,2.8882,2.888,2.8881,2.8881,2.888,2.888,2.888,2.8881,2.8879,2.8875,2.8875,2.888,2.888,2.888,0,2.8877,2.8877,2.8876,2.8877,2.8879,2.8878,2.8879,2.8879,2.8879,2.8879,2.8879,2.8878,2.8878,2.8877,2.8877,2.8878,2.8875,2.8877,2.8875,2.8875,2.8874,2.8874,2.887,2.8874,2.8874,2.8874,2.8874,0,2.8871,2.887,2.8874,2.8874,2.8873,2.8875,2.8874,2.8874,2.8875,2.8875,2.8876,2.8876,2.8876,2.8876,2.8876,2.8874,2.8874,2.8874,2.8874,2.8874,2.8874,2.8873,2.8873,2.8874,2.8874,2.8874,2.8874,0,2.8864,2.8867,2.8866,2.8869,2.887,2.8869,2.8871,2.8871,2.8872,2.8871,2.8871,2.8873,2.8872,2.8873,2.8872,2.8872,2.887,2.887,2.887,2.887,2.8869,2.8869,2.8865,2.8864,2.8868,2.8868,2.8868,0,2.886,2.8859,2.8863,2.8863,2.8865,2.8865,2.8865,2.8868,2.8868,2.8869,2.8869,2.8869,2.8869,2.8868,2.8868,2.8868,2.8868,2.8866,2.8868,2.8868,2.8868,2.8868,2.8868,2.8866,2.8866,2.8866,2.8866,0,2.8853,2.8855,2.8856,2.8858,2.8858,2.886,2.8861,2.8861,2.8864,2.8864,2.8864,2.8865,2.8865,2.8865,2.8865,2.8865,2.8866,2.8866,2.8865,2.8865,2.8865,2.8865,2.887,2.8865,2.8865,2.8865,2.8865,2.8865,2.8847,2.8847,2.885,2.8851,2.8853,2.8855,2.8855,2.8857,2.8858,2.8859,2.886,2.886,2.8861,2.8862,2.8862,2.8862,2.8862,2.8862,2.8862,2.8862,2.8862,2.8865,2.8862,2.8862,2.8862,2.8862,2.8862,0,2.884,2.8843,2.8844,2.8847,2.8848,2.885,2.8852,2.8853,2.8853,2.8855,2.8856,2.8856,2.8857,2.8858,2.8858,2.8858,2.8859,2.8858,2.8858,2.8858,2.8861,2.8861,2.8858,2.8858,2.8858,2.8858,2.8858,2.8858,2.8837,2.8837,2.884,2.8841,2.8843,2.8845,2.8846,2.8847,2.8849,2.885,2.8851,2.8852,2.8854,2.8854,2.8855,2.8855,2.8855,2.8855,2.8855,2.8857,2.8858,2.8858,2.8858,2.8855,2.8855,2.8852,2.8852,2.8852]}]]